Погода в Хвощах

Россия / Калужская область     54°52′38″N   35°17′49″E
темп.,
°C
ветер,
м/с
пор.,
м/с
влажн.,
%
обл.,
%
осадки,
мм/ч
давл.,
гПа
погр.,
м
14 июня, пн
пн1400:00+14ююв229726 0.1 100927
03:00+13ююв1197100 0.1 101012
06:00+15юв119560 0.0 101263
09:00+20ююз127561 0.1 1013500
12:00+25зюз12557 1.1 10141358
15:00+24в1159100 1.7 10141240
18:00+18в229059 1.7 101442
21:00+17ссв119020 1.9 101512
15 июня, вт
вт1500:00+16ссв119333 0.0 101511
03:00+15ссв11945 0.0 101511
06:00+16зсз00935 0.0 101541
09:00+22сз11705 0.0 1014472
12:00+25з125713 0.1 10121437
15:00+24сз336312 1.3 10121212
18:00+22ссз1385100 2.4 1011105
21:00+17сз239398 3.6 101155
16 июня, ср
ср1600:00+15сз23953 0.0 101159
03:00+14ссз25960 0.0 101192
06:00+13ссз2793100 0.0 1012170
09:00+19с3569100 0.0 1013622
12:00+22ссз455994 0.1 10141505
15:00+23ссз554464 0.2 10151902
18:00+22с354946 0.0 10161673
21:00+15ссв2566100 0.0 101979
17 июня, чт
чт1700:00+13ссв2366100 0.0 102043
03:00+11св23735 0.0 102364
06:00+12св13711 0.0 102481
09:00+19св23470 0.0 1024617
12:00+23св22355 0.0 10251673
15:00+25всв11340 0.0 10251937
18:00+23с22471 0.0 10251196
21:00+16св228182 0.0 102623
18 июня, пт
пт1800:00+14юв11805 0.0 102711
03:00+13ююз11886 0.0 102810
06:00+15з11810 0.0 102844
09:00+21юз11560 0.0 1028503
12:00+25ююз2242100 0.0 10281622
15:00+26ююз23415 0.0 10271930
18:00+25ю3454100 0.0 1026854
21:00+19ю2681100 0.0 1027106